User: anonymous   Login
Location: Caltech
(34.1382°N, 118.1253°W)
Time: 09:27:55
(UTC-07:00)
Language:

Cosmos 1939 Rocket - Orbit

View from above orbital plane
View from above orbital plane
View from above satellite
View from above satellite

Ground track
Ground track

The orbit data is extracted from the following two-line orbital elements,

1 19046U 88032B   17262.91489093 +.00000153 +00000-0 +15991-4 0  9990
2 19046 097.5220 307.0484 0038096 015.9854 344.2564 15.02295454586577
Epoch (UTC): 19 September 2017 21:57:26
Eccentricity: 0.0038096
inclination: 97.5220°
perigee height: 533 km
apogee height: 586 km
right ascension of ascending node: 307.0484°
argument of perigee: 15.9854°
revolutions per day: 15.02295454
mean anomaly at epoch: 344.2564°
orbit number at epoch: 58657

The dashed part of the orbit path shows where the satellite is in the earth's shadow,  

DLR